Tracking 32139 objects as of 16-Nov-2025
HD Live streaming from Space Station
objects crossing your sky now

KUIPER-00170

Track KUIPER-00170 now!
10-day predictions
KUIPER-00170 is classified as:


NORAD ID: 65783
Int'l Code: 2025-217X
Perigee: 460.2 km
Apogee: 467.1 km
Inclination: 51.9 °
Period: 93.7 minutes
Semi major axis: 6834 km
RCS: Unknown
Launch date: September 25, 2025
Source: United States (US)
Launch site: AIR FORCE EASTERN TEST RANGE (AFETR)
Your satellite tracking list
Your tracking list is empty




NASA's NSSDC Master Catalog

Two Line Element Set (TLE):
1 65783U 25217X   25319.65053750  .00051617  00000-0  14275-2 0  9998
2 65783  51.8650 195.6660 0005056 261.8877  98.1536 15.36499838  7874
Source of the keplerian elements: AFSPC